When you browse on this site, cookies collect data to enhance your experience and personalize the content and advertising you see.
Visit our Privacy Policy to learn more. By continuing to use the site, you agree to this use of cookies and data.
  • In Österreich
  • Länderverzeichnis
  • Für 7 Tage
  • Wassertemperatur
  • Wetterkarte
  • News
  • Widgets
  • user-avatar
    Anmelden

    Stündliche Wetter Fakuoka

    Heute, 18 August, Sonntag

    Zeit Temperatur Niederschläge Wind Luftdruck Luftfeuchtigkeit
    00:00 +27°C° 0 mm 1 m/S 734 mmHg 69%
    01:00 +27°C° 0 mm 1 m/S 734 mmHg 69%
    02:00 +26°C° 0 mm 1 m/S 734 mmHg 68%
    03:00 +24°C° 0 mm 0 m/S 734 mmHg 68%
    04:00 +24°C° 0 mm 0 m/S 734 mmHg 69%
    05:00 +24°C° 0 mm 0 m/S 734 mmHg 69%
    06:00 +24°C° 0 mm 0 m/S 734 mmHg 70%
    07:00 +25°C° 0 mm 0 m/S 735 mmHg 65%
    08:00 +26°C° 0 mm 0 m/S 735 mmHg 61%
    09:00 +28°C° 0 mm 0 m/S 735 mmHg 58%
    10:00 +29°C° 0 mm 0 m/S 736 mmHg 54%
    11:00 +30°C° 0 mm 0 m/S 736 mmHg 49%
    12:00 +33°C° 0 mm 1 m/S 736 mmHg 45%
    13:00 +32°C° 0 mm 1 m/S 735 mmHg 45%
    14:00 +32°C° 0 mm 1 m/S 735 mmHg 45%
    15:00 +31°C° 0 mm 1 m/S 735 mmHg 50%
    16:00 +31°C° 0 mm 1 m/S 735 mmHg 53%
    17:00 +31°C° 0 mm 1 m/S 735 mmHg 56%
    18:00 +30°C° 0 mm 1 m/S 735 mmHg 58%
    19:00 +29°C° 0 mm 1 m/S 735 mmHg 61%
    20:00 +28°C° 0 mm 1 m/S 735 mmHg 65%
    21:00 +26°C° 0 mm 0 m/S 736 mmHg 68%
    22:00 +27°C° 0 mm 1 m/S 736 mmHg 69%
    23:00 +27°C° 0 mm 1 m/S 736 mmHg 71%

    Morgen, 19 August, Montag

    Zeit Temperatur Niederschläge Wind Luftdruck Luftfeuchtigkeit
    00:00 +27°C° 0 mm 1 m/S 736 mmHg 72%
    01:00 +27°C° 0 mm 1 m/S 735 mmHg 72%
    02:00 +25°C° 0 mm 0 m/S 735 mmHg 71%
    03:00 +25°C° 0 mm 0 m/S 735 mmHg 71%
    04:00 +25°C° 0 mm 0 m/S 735 mmHg 71%
    05:00 +25°C° 0 mm 0 m/S 735 mmHg 72%
    06:00 +26°C° 0 mm 1 m/S 736 mmHg 72%
    07:00 +27°C° 0 mm 1 m/S 736 mmHg 69%
    08:00 +28°C° 0 mm 1 m/S 736 mmHg 66%
    09:00 +29°C° 0 mm 1 m/S 737 mmHg 63%
    10:00 +29°C° 0.1 mm 1 m/S 737 mmHg 65%
    11:00 +29°C° 0.1 mm 1 m/S 737 mmHg 67%
    12:00 +29°C° 0.1 mm 2 m/S 737 mmHg 69%
    13:00 +28°C° 0.4 mm 1 m/S 736 mmHg 72%
    14:00 +28°C° 0.4 mm 1 m/S 736 mmHg 75%
    15:00 +25°C° 0.4 mm 0 m/S 736 mmHg 78%
    16:00 +26°C° 4.4 mm 1 m/S 736 mmHg 82%
    17:00 +26°C° 4.4 mm 1 m/S 736 mmHg 85%
    18:00 +25°C° 4.4 mm 2 m/S 735 mmHg 89%
    19:00 +25°C° 1.2 mm 2 m/S 736 mmHg 87%
    20:00 +25°C° 1.2 mm 2 m/S 736 mmHg 86%
    21:00 +25°C° 1.2 mm 2 m/S 736 mmHg 84%
    22:00 +25°C° 0 mm 2 m/S 736 mmHg 84%
    23:00 +25°C° 0 mm 2 m/S 736 mmHg 84%

    übermorgen, 20 August, Dienstag

    Zeit Temperatur Niederschläge Wind Luftdruck Luftfeuchtigkeit
    00:00 +25°C° 0 mm 1 m/S 736 mmHg 85%
    01:00 +25°C° 0 mm 1 m/S 736 mmHg 85%
    02:00 +25°C° 0 mm 1 m/S 736 mmHg 85%
    03:00 +25°C° 0 mm 1 m/S 736 mmHg 85%
    04:00 +25°C° 0.6 mm 1 m/S 736 mmHg 85%
    05:00 +25°C° 0.6 mm 1 m/S 736 mmHg 86%
    06:00 +25°C° 0.6 mm 1 m/S 736 mmHg 86%
    07:00 +25°C° 0.9 mm 1 m/S 736 mmHg 85%
    08:00 +26°C° 0.9 mm 1 m/S 736 mmHg 85%
    09:00 +26°C° 0.9 mm 1 m/S 737 mmHg 84%
    10:00 +25°C° 0.4 mm 0 m/S 737 mmHg 81%
    11:00 +26°C° 0.4 mm 0 m/S 737 mmHg 77%
    12:00 +27°C° 0.4 mm 0 m/S 737 mmHg 74%
    13:00 +29°C° 0.1 mm 1 m/S 736 mmHg 73%
    14:00 +30°C° 0.1 mm 1 m/S 736 mmHg 72%
    15:00 +30°C° 0.1 mm 2 m/S 736 mmHg 71%
    16:00 +30°C° 0.4 mm 1 m/S 736 mmHg 74%
    17:00 +29°C° 0.4 mm 1 m/S 736 mmHg 76%
    18:00 +29°C° 0.4 mm 1 m/S 736 mmHg 79%
    19:00 +28°C° 0.6 mm 1 m/S 736 mmHg 81%
    20:00 +28°C° 0.6 mm 1 m/S 737 mmHg 82%
    21:00 +28°C° 0.6 mm 1 m/S 737 mmHg 84%
    22:00 +27°C° 0 mm 1 m/S 737 mmHg 84%
    23:00 +27°C° 0 mm 1 m/S 737 mmHg 85%

    21 August, Mittwoch

    Zeit Temperatur Niederschläge Wind Luftdruck Luftfeuchtigkeit
    00:00 +27°C° 0 mm 1 m/S 737 mmHg 85%
    01:00 +27°C° 0 mm 1 m/S 736 mmHg 85%
    02:00 +27°C° 0 mm 1 m/S 736 mmHg 86%
    03:00 +27°C° 0 mm 1 m/S 736 mmHg 86%
    04:00 +27°C° 0 mm 1 m/S 736 mmHg 87%
    05:00 +27°C° 0 mm 1 m/S 736 mmHg 87%
    06:00 +27°C° 0 mm 1 m/S 737 mmHg 87%
    07:00 +28°C° 0 mm 2 m/S 737 mmHg 83%
    08:00 +29°C° 0 mm 2 m/S 737 mmHg 79%
    09:00 +30°C° 0 mm 3 m/S 737 mmHg 75%
    10:00 +31°C° 0 mm 3 m/S 737 mmHg 70%
    11:00 +33°C° 0 mm 3 m/S 737 mmHg 64%
    12:00 +34°C° 0 mm 4 m/S 737 mmHg 59%
    13:00 +34°C° 0 mm 4 m/S 737 mmHg 58%
    14:00 +34°C° 0 mm 4 m/S 737 mmHg 57%
    15:00 +34°C° 0 mm 5 m/S 736 mmHg 56%
    16:00 +34°C° 0 mm 4 m/S 736 mmHg 60%
    17:00 +33°C° 0 mm 4 m/S 736 mmHg 64%
    18:00 +31°C° 0 mm 3 m/S 736 mmHg 68%
    19:00 +30°C° 0 mm 3 m/S 736 mmHg 71%
    20:00 +29°C° 0 mm 2 m/S 736 mmHg 75%
    21:00 +28°C° 0 mm 2 m/S 737 mmHg 78%
    22:00 +28°C° 0 mm 2 m/S 736 mmHg 80%
    23:00 +28°C° 0 mm 3 m/S 736 mmHg 81%

    22 August, Donnerstag

    Zeit Temperatur Niederschläge Wind Luftdruck Luftfeuchtigkeit
    00:00 +28°C° 0 mm 3 m/S 736 mmHg 83%
    01:00 +27°C° 0 mm 3 m/S 736 mmHg 83%
    02:00 +27°C° 0 mm 3 m/S 736 mmHg 83%
    03:00 +27°C° 0 mm 3 m/S 735 mmHg 83%
    04:00 +27°C° 0 mm 3 m/S 735 mmHg 84%
    05:00 +27°C° 0 mm 3 m/S 735 mmHg 84%
    06:00 +27°C° 0 mm 3 m/S 735 mmHg 85%
    07:00 +28°C° 0 mm 3 m/S 735 mmHg 82%
    08:00 +28°C° 0 mm 4 m/S 736 mmHg 78%
    09:00 +29°C° 0 mm 4 m/S 736 mmHg 75%
    10:00 +30°C° 0.2 mm 4 m/S 736 mmHg 73%
    11:00 +30°C° 0.2 mm 4 m/S 736 mmHg 72%
    12:00 +32°C° 0.2 mm 5 m/S 735 mmHg 70%
    13:00 +32°C° 0.6 mm 5 m/S 735 mmHg 70%
    14:00 +32°C° 0.6 mm 5 m/S 735 mmHg 70%
    15:00 +32°C° 0.6 mm 4 m/S 734 mmHg 70%
    16:00 +30°C° 0.4 mm 4 m/S 734 mmHg 72%
    17:00 +30°C° 0.4 mm 4 m/S 734 mmHg 74%
    18:00 +29°C° 0.4 mm 4 m/S 734 mmHg 76%
    19:00 +29°C° 0.2 mm 3 m/S 734 mmHg 78%
    20:00 +28°C° 0.2 mm 3 m/S 735 mmHg 80%
    21:00 +28°C° 0.2 mm 2 m/S 735 mmHg 83%
    22:00 +27°C° 0 mm 2 m/S 735 mmHg 83%
    23:00 +27°C° 0 mm 2 m/S 735 mmHg 84%

    23 August, Freitag

    Zeit Temperatur Niederschläge Wind Luftdruck Luftfeuchtigkeit
    00:00 +27°C° 0 mm 2 m/S 735 mmHg 84%
    01:00 +27°C° 0.3 mm 2 m/S 735 mmHg 85%
    02:00 +27°C° 0.3 mm 2 m/S 735 mmHg 86%
    03:00 +27°C° 0.3 mm 2 m/S 735 mmHg 86%
    04:00 +27°C° 0.4 mm 2 m/S 735 mmHg 86%
    05:00 +27°C° 0.4 mm 2 m/S 735 mmHg 87%
    06:00 +26°C° 0.4 mm 1 m/S 735 mmHg 87%
    07:00 +27°C° 0.2 mm 1 m/S 735 mmHg 83%
    08:00 +28°C° 0.2 mm 2 m/S 735 mmHg 79%
    09:00 +29°C° 0.2 mm 2 m/S 736 mmHg 75%
    10:00 +30°C° 0.3 mm 2 m/S 735 mmHg 72%
    11:00 +30°C° 0.3 mm 2 m/S 735 mmHg 69%
    12:00 +31°C° 0.3 mm 3 m/S 735 mmHg 66%
    13:00 +31°C° 0.2 mm 3 m/S 735 mmHg 64%
    14:00 +31°C° 0.2 mm 3 m/S 735 mmHg 63%
    15:00 +31°C° 0.2 mm 3 m/S 735 mmHg 62%
    16:00 +31°C° 0 mm 3 m/S 735 mmHg 64%
    17:00 +30°C° 0 mm 3 m/S 735 mmHg 66%
    18:00 +29°C° 0 mm 3 m/S 735 mmHg 69%
    19:00 +29°C° 0 mm 2 m/S 735 mmHg 72%
    20:00 +28°C° 0 mm 2 m/S 735 mmHg 75%
    21:00 +27°C° 0 mm 2 m/S 735 mmHg 79%
    22:00 +27°C° 0 mm 2 m/S 735 mmHg 79%
    23:00 +26°C° 0 mm 1 m/S 735 mmHg 80%
    Mehr zeigen